Tracking 22836 objects as of 18-Apr-2021
HD Live streaming from Space Station
objects crossing your sky now

DELTA 1 DEB

Track DELTA 1 DEB now!
10-day predictions


NORAD ID: 7137
Int'l Code: 1973-086DB
Perigee: 1,408.1 km
Apogee: 1,472.0 km
Inclination: 101.6 °
Period: 114.5 minutes
Semi major axis: 7811 km
RCS: 0.1063 m2 (medium)
Launch date: November 6, 1973
Source: United States (US)
Launch site: AIR FORCE WESTERN TEST RANGE (AFWTR)

Note: This is SATELLITE DEBRIS
aabbcc
Your satellite tracking list
Your tracking list is empty




NASA's NSSDC Master Catalog

Two Line Element Set (TLE):
1 07137U 73086DB  21107.94295751  .00000112  00000-0  92742-3 0  9996
2 07137 101.5539  86.4524 0040860 198.3757 232.1560 12.57589024169683
Source of the keplerian elements: AFSPC